Location: Vancouver
(49.2500°N, 123.1330°W)
Time: 10:05:10
(UTC-07:00)

Transit 2A Rocket - Visible Passes

Search period start: 28 September 2016 00:00
Search period end: 08 October 2016 00:00
Orbit: 586 x 918 km, 66.7° (Epoch: 28 September)

Date Brightness Start Highest point End Pass type
(mag) Time Alt. Az. Time Alt. Az. Time Alt. Az.
28 Sep 6.5 20:58:34 10° NNW 21:03:04 23° NNE 21:04:22 21° NE visible
28 Sep 6.4 22:41:03 10° NW 22:44:17 35° NNW 22:44:17 35° NNW visible
29 Sep 6.9 20:16:15 10° NNW 20:20:14 19° NNE 20:23:04 13° ENE visible
29 Sep 5.8 21:58:42 10° NNW 22:02:59 45° N 22:02:59 45° N visible
29 Sep 7.6 23:41:55 10° NW 23:42:53 14° WNW 23:42:53 14° WNW visible
30 Sep 7.1 19:33:52 10° NNW 19:37:18 16° NNE 19:40:35 10° NE visible
30 Sep 5.8 21:16:24 10° NNW 21:21:37 38° NE 21:21:43 38° NE visible
30 Sep 7.0 22:59:13 10° NW 23:01:37 25° WNW 23:01:37 25° WNW visible
01 Oct 6.2 20:34:08 10° NNW 20:38:55 28° NE 20:40:28 24° ENE visible
01 Oct 6.1 22:16:42 10° NW 22:20:23 42° NW 22:20:23 42° NW visible
02 Oct 6.6 19:51:51 10° NNW 19:56:09 22° NNE 19:59:15 14° ENE visible
02 Oct 5.2 21:34:19 10° NNW 21:39:10 64° N 21:39:10 64° N visible
02 Oct 7.6 23:17:59 10° WNW 23:19:05 14° WNW 23:19:05 14° WNW visible
03 Oct 5.3 20:51:58 10° NNW 20:57:20 48° NE 20:58:00 45° ENE visible
03 Oct 6.9 22:35:02 10° NW 22:37:55 25° WNW 22:37:55 25° WNW visible
04 Oct 5.9 20:09:42 10° NNW 20:14:44 34° NE 20:16:52 25° E visible
04 Oct 5.8 21:52:24 10° NW 21:56:47 47° W 21:56:47 47° W visible
05 Oct 6.3 19:27:26 10° NNW 19:32:01 25° NNE 19:35:47 12° E visible
05 Oct 4.8 21:09:56 10° NW 21:15:24 85° SW 21:15:42 79° S visible
05 Oct 7.6 22:54:25 10° WNW 22:55:38 13° W 22:55:38 13° W visible
06 Oct 5.0 20:27:34 10° NNW 20:33:00 63° NE 20:34:41 40° ESE visible
06 Oct 6.9 22:11:00 10° WNW 22:14:37 23° W 22:14:37 23° W visible
07 Oct 5.5 19:45:16 10° NNW 19:50:29 42° NE 19:53:43 19° ESE visible
07 Oct 5.9 21:28:11 10° NW 21:33:05 38° WSW 21:33:39 37° SW visible
